CDC8987 ZGGG-ZJZB

Flight info

Callsign CDC8987
Flight time N/A
Altitude 30100
Route SAREX9 SAREX W7 ZUH R200 BIGRO G221 SAGSU/K0920S0450
Aircraft A21N/M-SDE2E3FGHIRWXY/LB1

Departure

Time 2026-05-07 06:04
Airport Guangzhou Baiyun International Airport (ZGGG)

Arrival

Time N/A
Airport ZJZB
Time Latitude Longitude Altitude Speed Heading
2026-05-07 05:32 23.39659 113.30502 52 ft 0 kts 14°
2026-05-07 05:46 23.39647 113.30499 53 ft 2 kts 14°
2026-05-07 05:46 23.39633 113.30495 53 ft 2 kts 14°
2026-05-07 05:47 23.39618 113.30491 53 ft 2 kts 14°
2026-05-07 05:47 23.39603 113.30487 53 ft 2 kts 14°
2026-05-07 05:47 23.39588 113.30482 53 ft 2 kts 26°
2026-05-07 05:47 23.39578 113.30472 52 ft 2 kts 61°
2026-05-07 05:48 23.39574 113.30456 52 ft 2 kts 94°
2026-05-07 05:48 23.39575 113.30449 52 ft 1 kts 109°
2026-05-07 05:48 23.39576 113.30444 52 ft 0 kts 104°
2026-05-07 05:53 23.39576 113.30445 52 ft 0 kts 104°
2026-05-07 05:53 23.39566 113.30488 52 ft 10 kts 104°
2026-05-07 05:53 23.39547 113.30572 52 ft 11 kts 103°
2026-05-07 05:54 23.39528 113.30660 52 ft 12 kts 103°
2026-05-07 05:54 23.39491 113.30739 52 ft 12 kts 155°
2026-05-07 05:54 23.39409 113.30729 52 ft 12 kts 194°
2026-05-07 05:54 23.39324 113.30706 52 ft 12 kts 193°
2026-05-07 05:55 23.39239 113.30683 52 ft 12 kts 194°
2026-05-07 05:55 23.39153 113.30660 52 ft 12 kts 194°
2026-05-07 05:55 23.39065 113.30636 52 ft 13 kts 194°
2026-05-07 05:55 23.38977 113.30612 52 ft 13 kts 194°
2026-05-07 05:56 23.38888 113.30589 52 ft 13 kts 193°
2026-05-07 05:56 23.38797 113.30564 52 ft 13 kts 194°
2026-05-07 05:56 23.38707 113.30539 52 ft 13 kts 194°
2026-05-07 05:56 23.38617 113.30514 52 ft 13 kts 193°
2026-05-07 05:57 23.38526 113.30491 52 ft 13 kts 193°
2026-05-07 05:57 23.38434 113.30466 52 ft 13 kts 194°
2026-05-07 05:57 23.38343 113.30441 52 ft 13 kts 194°
2026-05-07 05:57 23.38250 113.30416 52 ft 13 kts 194°
2026-05-07 05:58 23.38158 113.30392 52 ft 13 kts 194°
2026-05-07 05:58 23.38065 113.30366 52 ft 13 kts 194°
2026-05-07 05:58 23.37972 113.30341 52 ft 13 kts 194°
2026-05-07 05:58 23.37878 113.30315 52 ft 13 kts 193°
2026-05-07 05:59 23.37785 113.30290 52 ft 13 kts 194°
2026-05-07 05:59 23.37692 113.30266 52 ft 13 kts 193°
2026-05-07 05:59 23.37626 113.30316 52 ft 13 kts 107°
2026-05-07 05:59 23.37607 113.30396 52 ft 7 kts 104°
2026-05-07 06:00 23.37605 113.30406 52 ft 0 kts 103°
2026-05-07 06:02 23.37605 113.30407 52 ft 0 kts 103°
2026-05-07 06:03 23.37596 113.30447 52 ft 7 kts 104°
2026-05-07 06:03 23.37583 113.30502 52 ft 7 kts 104°
2026-05-07 06:03 23.37582 113.30536 52 ft 2 kts 34°
2026-05-07 06:03 23.37612 113.30546 52 ft 10 kts 14°
2026-05-07 06:04 23.37918 113.30627 52 ft 80 kts 15°
2026-05-07 06:04 23.38675 113.30833 52 ft 142 kts 13°
2026-05-07 06:04 23.39816 113.31144 133 ft 184 kts 14°
2026-05-07 06:04 23.41074 113.31493 677 ft 187 kts 15°
2026-05-07 06:05 23.42343 113.31849 1282 ft 191 kts 16°
2026-05-07 06:05 23.43632 113.32230 1894 ft 194 kts 16°
2026-05-07 06:05 23.44968 113.32632 2335 ft 209 kts 16°
2026-05-07 06:05 23.46446 113.33077 2765 ft 226 kts 15°
2026-05-07 06:06 23.48014 113.33544 3148 ft 246 kts 15°
2026-05-07 06:06 23.49723 113.34054 3719 ft 259 kts 15°
2026-05-07 06:06 23.51454 113.34570 4539 ft 260 kts 14°
2026-05-07 06:06 23.53180 113.35084 5331 ft 261 kts 14°
2026-05-07 06:07 23.54949 113.35609 6090 ft 264 kts 13°
2026-05-07 06:07 23.56730 113.36037 6802 ft 266 kts
2026-05-07 06:07 23.58563 113.36393 7472 ft 270 kts
2026-05-07 06:07 23.60439 113.36560 8003 ft 274 kts 348°
2026-05-07 06:08 23.62175 113.35792 8636 ft 269 kts 319°
2026-05-07 06:08 23.63364 113.34262 9169 ft 271 kts 294°
2026-05-07 06:08 23.63837 113.32248 9631 ft 279 kts 276°
2026-05-07 06:08 23.64074 113.30148 10232 ft 283 kts 276°
2026-05-07 06:09 23.64350 113.27982 10569 ft 298 kts 277°
2026-05-07 06:09 23.64657 113.25681 10852 ft 314 kts 277°
2026-05-07 06:09 23.64985 113.23264 11126 ft 329 kts 277°
2026-05-07 06:09 23.65330 113.20747 11389 ft 344 kts 277°
2026-05-07 06:10 23.65527 113.18119 11620 ft 358 kts 265°
2026-05-07 06:10 23.64899 113.15454 11853 ft 371 kts 246°
2026-05-07 06:10 23.63420 113.13120 12065 ft 386 kts 227°
2026-05-07 06:10 23.61440 113.11089 12307 ft 398 kts 224°
2026-05-07 06:11 23.59168 113.09244 12660 ft 408 kts 211°
2026-05-07 06:11 23.56536 113.08148 13149 ft 414 kts 195°
2026-05-07 06:11 23.53657 113.07839 13660 ft 419 kts 182°
2026-05-07 06:11 23.50710 113.07867 14156 ft 422 kts 181°
2026-05-07 06:12 23.47748 113.07916 14593 ft 426 kts 181°
2026-05-07 06:12 23.44802 113.07950 15026 ft 428 kts 182°
2026-05-07 06:12 23.41793 113.07975 15477 ft 431 kts 182°
2026-05-07 06:12 23.38804 113.07995 15907 ft 433 kts 182°
2026-05-07 06:13 23.35743 113.08012 16322 ft 436 kts 182°
2026-05-07 06:13 23.32715 113.08029 16727 ft 439 kts 182°
2026-05-07 06:13 23.29656 113.08084 17118 ft 443 kts 179°
2026-05-07 06:13 23.26575 113.08494 17486 ft 448 kts 172°
2026-05-07 06:14 23.23541 113.09340 17873 ft 453 kts 165°
2026-05-07 06:14 23.20557 113.10582 18242 ft 457 kts 160°
2026-05-07 06:14 23.17618 113.11940 18586 ft 461 kts 159°
2026-05-07 06:14 23.14782 113.13275 18900 ft 464 kts 159°
2026-05-07 06:15 23.12000 113.14578 19205 ft 466 kts 159°
2026-05-07 06:15 23.09031 113.15955 19522 ft 469 kts 159°
2026-05-07 06:15 23.06006 113.17374 19842 ft 472 kts 157°
2026-05-07 06:15 23.03234 113.19271 20122 ft 480 kts 143°
2026-05-07 06:16 23.00886 113.21883 20438 ft 486 kts 129°
2026-05-07 06:16 22.99106 113.25030 20766 ft 489 kts 119°
2026-05-07 06:16 22.97558 113.28335 21086 ft 491 kts 117°
2026-05-07 06:16 22.96043 113.31653 21333 ft 495 kts 117°
2026-05-07 06:17 22.94500 113.34998 21587 ft 498 kts 118°
2026-05-07 06:17 22.92924 113.38350 21850 ft 500 kts 118°
2026-05-07 06:17 22.91340 113.41650 22129 ft 502 kts 120°
2026-05-07 06:17 22.89265 113.44710 22309 ft 501 kts 137°
2026-05-07 06:18 22.86464 113.46890 22574 ft 496 kts 155°
2026-05-07 06:18 22.83216 113.48083 22845 ft 490 kts 172°
2026-05-07 06:18 22.79807 113.48272 23106 ft 486 kts 184°
2026-05-07 06:18 22.76430 113.48134 23378 ft 488 kts 185°
2026-05-07 06:19 22.73064 113.47997 23677 ft 488 kts 185°
2026-05-07 06:19 22.69669 113.47873 24040 ft 487 kts 184°
2026-05-07 06:19 22.66236 113.47762 24411 ft 486 kts 184°
2026-05-07 06:19 22.62894 113.47662 24737 ft 486 kts 184°
2026-05-07 06:20 22.59474 113.47566 25072 ft 486 kts 184°
2026-05-07 06:20 22.56092 113.47474 25411 ft 485 kts 184°
2026-05-07 06:20 22.52721 113.47382 25724 ft 485 kts 184°
2026-05-07 06:20 22.49351 113.47291 26042 ft 485 kts 184°
2026-05-07 06:21 22.45951 113.47199 26364 ft 485 kts 184°
2026-05-07 06:21 22.42595 113.47108 26667 ft 484 kts 184°
2026-05-07 06:21 22.39204 113.47016 26975 ft 484 kts 184°
2026-05-07 06:21 22.35849 113.46925 27274 ft 484 kts 184°
2026-05-07 06:22 22.32490 113.46835 27578 ft 484 kts 184°
2026-05-07 06:22 22.25918 113.45782 28089 ft 474 kts 206°
2026-05-07 06:22 22.23079 113.44006 28371 ft 466 kts 221°
2026-05-07 06:23 22.20816 113.41574 28600 ft 460 kts 235°
2026-05-07 06:23 22.19194 113.38620 28787 ft 456 kts 249°
2026-05-07 06:23 22.18010 113.35477 29043 ft 455 kts 251°
2026-05-07 06:23 22.16851 113.32301 29240 ft 457 kts 251°
2026-05-07 06:24 22.15678 113.29119 29432 ft 459 kts 250°
2026-05-07 06:24 22.14479 113.25923 29629 ft 460 kts 250°
2026-05-07 06:24 22.13264 113.22759 29828 ft 461 kts 249°
2026-05-07 06:24 22.11946 113.19558 29976 ft 463 kts 248°
2026-05-07 06:25 22.09290 113.13251 29977 ft 464 kts 248°
2026-05-07 06:25 22.06648 113.06938 29977 ft 465 kts 248°
2026-05-07 06:26 22.03998 113.00584 29973 ft 466 kts 249°
2026-05-07 06:26 22.01445 112.94141 29977 ft 465 kts 250°
2026-05-07 06:27 21.98978 112.87753 29982 ft 465 kts 250°
2026-05-07 06:27 21.96483 112.81350 29985 ft 465 kts 249°
2026-05-07 06:28 21.93897 112.74931 29987 ft 465 kts 249°
2026-05-07 06:28 21.91328 112.68587 29987 ft 465 kts 249°
2026-05-07 06:29 21.88738 112.62173 29984 ft 465 kts 249°
2026-05-07 06:29 21.86171 112.55821 29981 ft 465 kts 249°
2026-05-07 06:30 21.83621 112.49448 29981 ft 466 kts 249°
2026-05-07 06:30 21.81071 112.43021 29979 ft 466 kts 250°
2026-05-07 06:31 21.78530 112.36620 29977 ft 466 kts 250°
2026-05-07 06:31 21.75993 112.30239 29982 ft 467 kts 249°
2026-05-07 06:32 21.73433 112.23809 29982 ft 466 kts 249°
2026-05-07 06:32 21.70884 112.17414 29982 ft 467 kts 249°
2026-05-07 06:33 21.68335 112.11028 29980 ft 467 kts 249°
2026-05-07 06:33 21.65768 112.04605 29980 ft 467 kts 249°
2026-05-07 06:34 21.63214 111.98216 29974 ft 467 kts 249°
2026-05-07 06:34 21.60655 111.91825 29974 ft 467 kts 249°
2026-05-07 06:35 21.57877 111.85526 29973 ft 469 kts 244°
2026-05-07 06:35 21.54359 111.79613 29971 ft 472 kts 236°
2026-05-07 06:36 21.50200 111.74148 29968 ft 474 kts 232°
2026-05-07 06:36 21.45917 111.68770 29967 ft 474 kts 232°
2026-05-07 06:37 21.41651 111.63419 29965 ft 474 kts 232°
2026-05-07 06:37 21.37372 111.58047 29962 ft 474 kts 232°
2026-05-07 06:38 21.33090 111.52674 29955 ft 474 kts 232°
2026-05-07 06:38 21.28805 111.47303 29951 ft 474 kts 232°
2026-05-07 06:39 21.24541 111.41962 29954 ft 474 kts 232°
2026-05-07 06:39 21.20224 111.36559 29954 ft 473 kts 232°
2026-05-07 06:40 21.15937 111.31198 29955 ft 473 kts 232°
2026-05-07 06:40 21.11687 111.25889 29956 ft 474 kts 232°
2026-05-07 06:41 21.07367 111.20497 29956 ft 474 kts 232°
2026-05-07 06:41 21.03077 111.15147 29956 ft 474 kts 232°
2026-05-07 06:42 20.98819 111.09838 29956 ft 472 kts 232°
2026-05-07 06:42 20.94635 111.04624 29952 ft 443 kts 231°
2026-05-07 06:43 20.92673 111.02187 29950 ft 424 kts 232°
2026-05-07 06:43 20.90780 110.99829 29943 ft 407 kts 232°
2026-05-07 06:43 20.88979 110.97575 29940 ft 394 kts 232°
2026-05-07 06:43 20.87243 110.95380 29945 ft 390 kts 232°
2026-05-07 06:44 20.83722 110.90958 29955 ft 397 kts 232°
2026-05-07 06:44 20.81242 110.87872 29957 ft 409 kts 232°
2026-05-07 06:44 20.78027 110.83863 29954 ft 423 kts 232°
2026-05-07 06:45 20.74135 110.79006 29950 ft 439 kts 231°
2026-05-07 06:45 20.70087 110.73957 29945 ft 454 kts 231°
2026-05-07 06:46 20.65929 110.68771 29935 ft 466 kts 231°
2026-05-07 06:46 20.61667 110.63456 29938 ft 474 kts 231°
2026-05-07 06:47 20.57392 110.58130 29939 ft 475 kts 231°
2026-05-07 06:47 20.53009 110.52863 29941 ft 476 kts 228°
2026-05-07 06:48 20.48099 110.48073 29940 ft 478 kts 221°
2026-05-07 06:48 20.42715 110.43887 29938 ft 480 kts 217°
2026-05-07 06:49 20.37204 110.39875 29935 ft 480 kts 216°
2026-05-07 06:49 20.31681 110.35860 29936 ft 480 kts 216°
2026-05-07 06:50 20.26188 110.31864 29934 ft 481 kts 216°
2026-05-07 06:50 20.20637 110.27826 29928 ft 481 kts 216°
2026-05-07 06:51 20.15144 110.23832 29928 ft 481 kts 216°
2026-05-07 06:51 20.09612 110.19811 29919 ft 481 kts 216°
2026-05-07 06:52 20.04056 110.15829 29915 ft 481 kts 214°
2026-05-07 06:52 19.98214 110.12343 29914 ft 483 kts 208°
2026-05-07 06:53 19.92091 110.09329 29916 ft 483 kts 206°
2026-05-07 06:53 19.85980 110.06366 29921 ft 483 kts 206°
2026-05-07 06:54 19.79846 110.03391 29929 ft 483 kts 206°
2026-05-07 06:54 19.73736 110.00426 29929 ft 483 kts 206°
2026-05-07 06:55 19.67606 109.97453 29927 ft 484 kts 206°
2026-05-07 06:55 19.61483 109.94486 29930 ft 484 kts 206°
2026-05-07 06:56 19.55366 109.91522 29933 ft 484 kts 206°
2026-05-07 06:56 19.49227 109.88549 29939 ft 484 kts 206°
2026-05-07 06:57 19.43095 109.85580 29942 ft 484 kts 206°
2026-05-07 06:57 19.36949 109.82613 29947 ft 484 kts 206°
2026-05-07 06:58 19.30809 109.79701 29946 ft 484 kts 206°
2026-05-07 06:58 19.24652 109.76787 29946 ft 485 kts 206°
2026-05-07 06:59 19.18527 109.73771 29950 ft 485 kts 207°
2026-05-07 06:59 19.12410 109.70774 29966 ft 485 kts 206°
2026-05-07 07:00 19.06257 109.67833 29981 ft 485 kts 206°
2026-05-07 07:00 19.00079 109.64878 30006 ft 485 kts 206°
2026-05-07 07:01 18.93939 109.61938 30027 ft 485 kts 206°
2026-05-07 07:01 18.87769 109.58982 30025 ft 485 kts 206°
2026-05-07 07:02 18.81637 109.56045 30015 ft 485 kts 206°
2026-05-07 07:02 18.75470 109.53092 30000 ft 485 kts 206°
2026-05-07 07:03 18.69334 109.50156 29989 ft 485 kts 206°
2026-05-07 07:03 18.63182 109.47214 29983 ft 485 kts 206°
2026-05-07 07:04 18.57015 109.44267 29977 ft 485 kts 206°
2026-05-07 07:04 18.51055 109.40919 29972 ft 484 kts 215°
2026-05-07 07:05 18.45898 109.36388 29970 ft 481 kts 227°
2026-05-07 07:05 18.41593 109.31059 29967 ft 481 kts 232°
2026-05-07 07:06 18.37385 109.25578 29960 ft 481 kts 232°
2026-05-07 07:06 18.32801 109.20471 29945 ft 484 kts 218°
2026-05-07 07:07 18.29909 109.18668 29946 ft 487 kts 206°
2026-05-07 07:07 18.26698 109.17514 29942 ft 489 kts 194°
2026-05-07 07:07 18.23295 109.17066 29942 ft 491 kts 183°
2026-05-07 07:07 18.19889 109.17007 29944 ft 491 kts 181°
2026-05-07 07:08 18.13037 109.16983 29937 ft 490 kts 181°
2026-05-07 07:08 18.06220 109.16940 29926 ft 490 kts 181°
2026-05-07 07:09 17.99390 109.16875 29924 ft 490 kts 181°
2026-05-07 07:09 17.92534 109.16800 29888 ft 488 kts 181°
2026-05-07 07:10 17.89192 109.16763 29549 ft 484 kts 181°
2026-05-07 07:10 17.85800 109.16726 28852 ft 483 kts 181°
2026-05-07 07:10 17.82414 109.16688 28110 ft 482 kts 181°
2026-05-07 07:10 17.79062 109.16652 27330 ft 482 kts 181°
2026-05-07 07:11 17.75741 109.16615 26481 ft 484 kts 181°
2026-05-07 07:11 17.72330 109.16576 25575 ft 486 kts 181°
2026-05-07 07:11 17.68967 109.16539 24656 ft 488 kts 181°
2026-05-07 07:11 17.65544 109.16502 23707 ft 490 kts 181°
2026-05-07 07:12 17.62144 109.16468 22776 ft 492 kts 181°
2026-05-07 07:12 17.58748 109.16435 22076 ft 487 kts 181°
2026-05-07 07:12 17.55383 109.16402 21559 ft 480 kts 181°
2026-05-07 07:12 17.52075 109.16657 20923 ft 477 kts 170°
2026-05-07 07:13 17.48897 109.17673 20289 ft 473 kts 157°
2026-05-07 07:13 17.46065 109.19344 19687 ft 468 kts 145°
2026-05-07 07:13 17.43416 109.21327 19077 ft 464 kts 143°
2026-05-07 07:13 17.40817 109.23323 18435 ft 460 kts 143°
2026-05-07 07:14 17.38276 109.25279 17810 ft 456 kts 143°
2026-05-07 07:14 17.35727 109.27234 17190 ft 451 kts 143°
2026-05-07 07:14 17.33194 109.29169 16578 ft 447 kts 143°
2026-05-07 07:14 17.30685 109.31078 15978 ft 442 kts 143°
2026-05-07 07:15 17.28239 109.32935 15387 ft 438 kts 143°
2026-05-07 07:15 17.25758 109.34815 14883 ft 432 kts 143°
2026-05-07 07:15 17.23338 109.36646 14655 ft 432 kts 143°
2026-05-07 07:15 17.20922 109.38474 14638 ft 432 kts 143°
2026-05-07 07:16 17.18460 109.40336 14636 ft 433 kts 143°
2026-05-07 07:16 17.16005 109.42191 14637 ft 432 kts 143°
2026-05-07 07:16 17.13586 109.44018 14637 ft 432 kts 143°
2026-05-07 07:16 17.11160 109.45849 14638 ft 432 kts 143°
2026-05-07 07:17 17.08697 109.47707 14637 ft 432 kts 143°
2026-05-07 07:17 17.06248 109.49554 14634 ft 432 kts 143°
2026-05-07 07:17 17.03825 109.51382 14635 ft 431 kts 143°
2026-05-07 07:17 17.01409 109.53204 14636 ft 431 kts 143°
2026-05-07 07:18 16.98923 109.55077 14636 ft 431 kts 143°
2026-05-07 07:18 16.96501 109.56902 14637 ft 431 kts 143°
2026-05-07 07:18 16.94069 109.58734 14636 ft 432 kts 143°
2026-05-07 07:18 16.91620 109.60579 14636 ft 432 kts 144°
2026-05-07 07:19 16.89180 109.62415 14636 ft 432 kts 144°
2026-05-07 07:19 16.86743 109.64247 14634 ft 432 kts 143°
2026-05-07 07:19 16.84273 109.66104 14633 ft 432 kts 144°
2026-05-07 07:19 16.81836 109.67935 14633 ft 432 kts 144°
2026-05-07 07:20 16.79394 109.69771 14631 ft 432 kts 144°
2026-05-07 07:20 16.76964 109.71596 14630 ft 432 kts 144°
2026-05-07 07:20 16.74510 109.73440 14630 ft 432 kts 144°
2026-05-07 07:20 16.72090 109.75258 14631 ft 432 kts 144°
2026-05-07 07:21 16.69624 109.77109 14632 ft 432 kts 144°
2026-05-07 07:21 16.67181 109.78942 14631 ft 431 kts 144°
2026-05-07 07:21 16.64740 109.80775 14633 ft 431 kts 144°
2026-05-07 07:21 16.62303 109.82602 14634 ft 430 kts 143°
2026-05-07 07:22 16.59883 109.84415 14632 ft 429 kts 143°
2026-05-07 07:22 16.57465 109.86227 14630 ft 429 kts 144°
2026-05-07 07:22 16.55020 109.88059 14629 ft 429 kts 144°
2026-05-07 07:22 16.52604 109.89870 14627 ft 429 kts 143°
2026-05-07 07:23 16.50172 109.91690 14626 ft 430 kts 143°
2026-05-07 07:23 16.47731 109.93516 14624 ft 430 kts 143°
2026-05-07 07:23 16.45297 109.95338 14622 ft 430 kts 143°
2026-05-07 07:23 16.42872 109.97151 14619 ft 430 kts 143°
2026-05-07 07:24 16.40423 109.98982 14619 ft 431 kts 143°
2026-05-07 07:24 16.38003 110.00791 14618 ft 430 kts 143°
2026-05-07 07:24 16.35571 110.02608 14618 ft 430 kts 143°
2026-05-07 07:24 16.33131 110.04432 14617 ft 430 kts 143°
2026-05-07 07:25 16.28276 110.08058 14617 ft 429 kts 143°
2026-05-07 07:25 16.25832 110.09883 14617 ft 429 kts 143°
2026-05-07 07:25 16.23395 110.11703 14618 ft 429 kts 143°
2026-05-07 07:26 16.20989 110.13497 14623 ft 429 kts 143°
2026-05-07 07:26 16.18547 110.15317 14622 ft 429 kts 143°
2026-05-07 07:26 16.16140 110.17110 14621 ft 429 kts 143°
2026-05-07 07:26 16.13707 110.18923 14621 ft 429 kts 143°
2026-05-07 07:27 16.11273 110.20736 14622 ft 430 kts 143°
2026-05-07 07:27 16.08811 110.22570 14624 ft 430 kts 143°
2026-05-07 07:27 16.06407 110.24360 14626 ft 429 kts 143°
2026-05-07 07:27 16.03979 110.26166 14629 ft 429 kts 143°
2026-05-07 07:28 16.01537 110.27984 14635 ft 429 kts 143°
2026-05-07 07:28 15.99097 110.29800 14635 ft 429 kts 143°
2026-05-07 07:28 15.96688 110.31592 14635 ft 428 kts 143°
2026-05-07 07:28 15.94261 110.33396 14635 ft 428 kts 143°
2026-05-07 07:29 15.91834 110.35200 14634 ft 428 kts 143°
2026-05-07 07:29 15.89419 110.36993 14635 ft 428 kts 143°
2026-05-07 07:29 15.86979 110.38806 14635 ft 428 kts 143°
2026-05-07 07:29 15.84560 110.40602 14637 ft 428 kts 143°
2026-05-07 07:30 15.82143 110.42396 14635 ft 428 kts 143°
2026-05-07 07:30 15.79702 110.44207 14636 ft 428 kts 143°
2026-05-07 07:30 15.77289 110.45998 14636 ft 428 kts 143°
2026-05-07 07:30 15.74873 110.47789 14636 ft 428 kts 143°
2026-05-07 07:31 15.72425 110.49604 14635 ft 428 kts 143°
2026-05-07 07:31 15.70017 110.51389 14636 ft 428 kts 143°
2026-05-07 07:31 15.67563 110.53207 14636 ft 428 kts 143°
2026-05-07 07:31 15.65155 110.54992 14636 ft 428 kts 143°
2026-05-07 07:32 15.62729 110.56788 14635 ft 428 kts 143°
2026-05-07 07:32 15.60295 110.58590 14638 ft 428 kts 143°
2026-05-07 07:32 15.57884 110.60374 14639 ft 427 kts 143°
2026-05-07 07:32 15.55446 110.62178 14640 ft 427 kts 143°
2026-05-07 07:33 15.53042 110.63957 14636 ft 427 kts 143°
2026-05-07 07:33 15.50598 110.65763 14634 ft 427 kts 143°
2026-05-07 07:33 15.48186 110.67546 14631 ft 427 kts 143°
2026-05-07 07:33 15.45744 110.69350 14630 ft 427 kts 143°
2026-05-07 07:34 15.43334 110.71130 14632 ft 427 kts 143°
2026-05-07 07:34 15.40928 110.72907 14633 ft 427 kts 143°
2026-05-07 07:34 15.38481 110.74713 14633 ft 427 kts 143°
2026-05-07 07:34 15.36085 110.76482 14632 ft 427 kts 143°
2026-05-07 07:35 15.33631 110.78294 14633 ft 427 kts 143°
2026-05-07 07:35 15.31212 110.80077 14633 ft 427 kts 143°
2026-05-07 07:35 15.28788 110.81866 14633 ft 427 kts 143°
2026-05-07 07:35 15.26367 110.83651 14635 ft 426 kts 143°
2026-05-07 07:36 15.23975 110.85414 14633 ft 426 kts 143°
2026-05-07 07:36 15.21555 110.87197 14631 ft 426 kts 143°
2026-05-07 07:36 15.19137 110.88979 14632 ft 426 kts 143°
2026-05-07 07:36 15.16722 110.90756 14633 ft 426 kts 143°
2026-05-07 07:37 15.14304 110.92536 14633 ft 426 kts 143°
2026-05-07 07:37 15.11891 110.94312 14631 ft 426 kts 143°
2026-05-07 07:37 15.09440 110.96116 14627 ft 426 kts 143°
2026-05-07 07:37 15.07026 110.97892 14623 ft 426 kts 143°
2026-05-07 07:38 15.04612 110.99667 14621 ft 426 kts 143°
2026-05-07 07:38 15.02197 111.01441 14619 ft 426 kts 143°
2026-05-07 07:38 14.99774 111.03222 14618 ft 426 kts 143°
2026-05-07 07:38 14.97359 111.04997 14617 ft 426 kts 143°
2026-05-07 07:39 14.94946 111.06769 14616 ft 426 kts 143°
2026-05-07 07:39 14.92530 111.08543 14615 ft 426 kts 143°
2026-05-07 07:39 14.90084 111.10339 14616 ft 426 kts 143°
2026-05-07 07:39 14.87696 111.12092 14615 ft 425 kts 143°
2026-05-07 07:40 14.85278 111.13866 14615 ft 425 kts 143°
2026-05-07 07:40 14.82859 111.15640 14615 ft 425 kts 143°
2026-05-07 07:40 14.80433 111.17419 14616 ft 425 kts 143°
2026-05-07 07:40 14.78014 111.19192 14615 ft 425 kts 143°
2026-05-07 07:41 14.75590 111.20969 14616 ft 425 kts 143°
2026-05-07 07:41 14.73194 111.22724 14618 ft 426 kts 143°
2026-05-07 07:41 14.70766 111.24503 14621 ft 426 kts 143°
2026-05-07 07:41 14.68334 111.26284 14625 ft 426 kts 143°
2026-05-07 07:42 14.65908 111.28059 14627 ft 426 kts 143°
2026-05-07 07:42 14.63512 111.29813 14629 ft 426 kts 143°
2026-05-07 07:42 14.61103 111.31575 14630 ft 425 kts 143°
2026-05-07 07:42 14.58674 111.33352 14633 ft 425 kts 143°
2026-05-07 07:43 14.56243 111.35129 14635 ft 425 kts 143°
2026-05-07 07:43 14.53849 111.36880 14635 ft 425 kts 143°
2026-05-07 07:43 14.51426 111.38650 14636 ft 425 kts 143°
2026-05-07 07:43 14.48994 111.40427 14636 ft 425 kts 143°
2026-05-07 07:44 14.46567 111.42201 14636 ft 425 kts 143°
2026-05-07 07:44 14.44168 111.43954 14636 ft 425 kts 143°
2026-05-07 07:44 14.41753 111.45716 14636 ft 425 kts 143°
2026-05-07 07:44 14.39335 111.47481 14636 ft 426 kts 143°
2026-05-07 07:45 14.36920 111.49244 14636 ft 426 kts 143°
2026-05-07 07:45 14.34490 111.51015 14635 ft 423 kts 143°
2026-05-07 07:45 14.32117 111.52743 14630 ft 405 kts 142°
2026-05-07 07:45 14.29857 111.54389 14629 ft 395 kts 142°
2026-05-07 07:46 14.27642 111.56002 14631 ft 381 kts 142°
2026-05-07 07:46 14.25473 111.57584 14634 ft 380 kts 142°
2026-05-07 07:46 14.23334 111.59142 14635 ft 380 kts 142°
2026-05-07 07:46 14.21173 111.60718 14636 ft 380 kts 142°
2026-05-07 07:47 14.19016 111.62289 14636 ft 380 kts 142°
2026-05-07 07:47 14.16839 111.63875 14636 ft 380 kts 142°
2026-05-07 07:47 14.14657 111.65464 14636 ft 380 kts 142°
2026-05-07 07:47 14.12521 111.67018 14637 ft 381 kts 142°
2026-05-07 07:48 14.10354 111.68595 14637 ft 380 kts 142°
2026-05-07 07:48 14.08170 111.70184 14637 ft 380 kts 142°
2026-05-07 07:48 14.06022 111.71745 14636 ft 380 kts 142°
2026-05-07 07:48 14.03849 111.73325 14636 ft 379 kts 142°
2026-05-07 07:49 14.01682 111.74900 14636 ft 379 kts 142°
2026-05-07 07:49 13.99547 111.76451 14636 ft 379 kts 142°
2026-05-07 07:49 13.97376 111.78028 14636 ft 379 kts 142°
2026-05-07 07:49 13.95213 111.79600 14636 ft 380 kts 142°
2026-05-07 07:50 13.93042 111.81177 14635 ft 380 kts 142°
2026-05-07 07:50 13.90875 111.82749 14631 ft 380 kts 142°
2026-05-07 07:50 13.88732 111.84304 14626 ft 380 kts 142°
2026-05-07 07:50 13.86565 111.85877 14622 ft 380 kts 142°
2026-05-07 07:51 13.84385 111.87459 14619 ft 380 kts 142°
2026-05-07 07:51 13.82239 111.89015 14618 ft 380 kts 142°
2026-05-07 07:51 13.80055 111.90598 14617 ft 380 kts 142°
2026-05-07 07:51 13.77914 111.92151 14616 ft 379 kts 142°
2026-05-07 07:52 13.75752 111.93718 14616 ft 379 kts 142°
2026-05-07 07:52 13.73592 111.95284 14616 ft 379 kts 142°
2026-05-07 07:52 13.71443 111.96840 14615 ft 379 kts 142°
2026-05-07 07:52 13.69268 111.98416 14613 ft 379 kts 142°
2026-05-07 07:53 13.67129 111.99965 14615 ft 380 kts 142°
2026-05-07 07:53 13.64938 112.01551 14615 ft 380 kts 142°
2026-05-07 07:53 13.62795 112.03102 14614 ft 380 kts 142°
2026-05-07 07:53 13.60617 112.04678 14615 ft 380 kts 142°
2026-05-07 07:54 13.58460 112.06239 14616 ft 380 kts 142°
2026-05-07 07:54 13.56302 112.07800 14616 ft 380 kts 142°
2026-05-07 07:54 13.54147 112.09358 14614 ft 380 kts 142°
2026-05-07 07:54 13.51980 112.10925 14613 ft 379 kts 142°
2026-05-07 07:55 13.49798 112.12502 14615 ft 380 kts 142°
2026-05-07 07:55 13.47650 112.14054 14615 ft 379 kts 142°
2026-05-07 07:55 13.45499 112.15609 14615 ft 379 kts 142°
2026-05-07 07:55 13.43326 112.17178 14614 ft 379 kts 142°
2026-05-07 07:56 13.41176 112.18732 14615 ft 379 kts 142°
2026-05-07 07:56 13.39012 112.20293 14615 ft 379 kts 142°
2026-05-07 07:56 13.36832 112.21867 14615 ft 379 kts 142°
2026-05-07 07:56 13.34690 112.23412 14614 ft 379 kts 142°
2026-05-07 07:57 13.32522 112.24976 14615 ft 379 kts 142°
2026-05-07 07:57 13.30368 112.26529 14616 ft 379 kts 142°
2026-05-07 07:57 13.28209 112.28087 14615 ft 379 kts 142°
2026-05-07 07:57 13.26030 112.29658 14615 ft 379 kts 142°
2026-05-07 07:58 13.23881 112.31208 14615 ft 379 kts 142°
2026-05-07 07:58 13.21728 112.32760 14616 ft 379 kts 142°
2026-05-07 07:58 13.19567 112.34316 14618 ft 379 kts 142°
2026-05-07 07:58 13.17389 112.35886 14618 ft 379 kts 142°
2026-05-07 07:59 13.15230 112.37440 14617 ft 379 kts 142°
2026-05-07 07:59 13.13086 112.38984 14619 ft 379 kts 142°
2026-05-07 07:59 13.10927 112.40538 14620 ft 378 kts 142°
2026-05-07 07:59 13.08755 112.42101 14621 ft 378 kts 142°
2026-05-07 08:00 13.06594 112.43657 14624 ft 378 kts 142°
2026-05-07 08:00 13.04458 112.45194 14627 ft 378 kts 142°
2026-05-07 08:00 13.02290 112.46754 14629 ft 379 kts 142°
2026-05-07 08:00 13.00142 112.48299 14632 ft 379 kts 142°
2026-05-07 08:01 12.97986 112.49849 14634 ft 379 kts 142°
2026-05-07 08:01 12.95801 112.51419 14635 ft 379 kts 142°
2026-05-07 08:01 12.93654 112.52962 14636 ft 379 kts 142°
2026-05-07 08:01 12.91482 112.54524 14636 ft 378 kts 142°
2026-05-07 08:02 12.89335 112.56065 14635 ft 378 kts 142°
2026-05-07 08:02 12.87184 112.57609 14631 ft 378 kts 142°
2026-05-07 08:02 12.85017 112.59164 14627 ft 378 kts 142°
2026-05-07 08:02 12.82854 112.60719 14623 ft 378 kts 142°
2026-05-07 08:03 12.80719 112.62251 14619 ft 378 kts 142°
2026-05-07 08:03 12.78557 112.63803 14617 ft 378 kts 142°
2026-05-07 08:03 12.76397 112.65353 14617 ft 378 kts 142°
2026-05-07 08:03 12.74257 112.66888 14616 ft 378 kts 142°
2026-05-07 08:04 12.72094 112.68439 14616 ft 378 kts 142°
2026-05-07 08:04 12.69934 112.69987 14616 ft 378 kts 142°
2026-05-07 08:04 12.67766 112.71541 14615 ft 378 kts 142°
2026-05-07 08:04 12.65602 112.73093 14616 ft 378 kts 142°
2026-05-07 08:05 12.63452 112.74632 14615 ft 378 kts 142°
2026-05-07 08:05 12.61290 112.76181 14616 ft 378 kts 142°
2026-05-07 08:05 12.59146 112.77718 14616 ft 378 kts 142°
2026-05-07 08:05 12.56983 112.79266 14616 ft 378 kts 142°
2026-05-07 08:06 12.55397 112.80402 14617 ft 378 kts 142°
2026-05-07 08:06 12.53243 112.81944 14619 ft 378 kts 142°
2026-05-07 08:06 12.51491 112.83199 14620 ft 378 kts 142°
2026-05-07 08:06 12.49329 112.84745 14620 ft 378 kts 142°
2026-05-07 08:07 12.47166 112.86293 14618 ft 378 kts 142°
2026-05-07 08:07 12.45004 112.87839 14614 ft 378 kts 142°
2026-05-07 08:07 12.42841 112.89386 14613 ft 378 kts 142°
2026-05-07 08:07 12.40704 112.90914 14612 ft 378 kts 142°
2026-05-07 08:08 12.38542 112.92460 14612 ft 377 kts 142°
2026-05-07 08:08 12.36394 112.93995 14614 ft 377 kts 142°
2026-05-07 08:08 12.34222 112.95547 14615 ft 377 kts 142°
2026-05-07 08:08 12.32089 112.97071 14615 ft 377 kts 142°
2026-05-07 08:09 12.29919 112.98622 14616 ft 377 kts 143°
2026-05-07 08:09 12.27772 113.00155 14617 ft 377 kts 142°
2026-05-07 08:09 12.25618 113.01691 14616 ft 377 kts 142°
2026-05-07 08:09 12.23465 113.03227 14616 ft 378 kts 142°
2026-05-07 08:10 12.21279 113.04787 14616 ft 378 kts 142°
2026-05-07 08:10 12.19148 113.06307 14616 ft 377 kts 142°
2026-05-07 08:10 12.16973 113.07858 14616 ft 377 kts 142°
2026-05-07 08:10 12.14826 113.09391 14616 ft 378 kts 142°
2026-05-07 08:11 12.12657 113.10938 14616 ft 378 kts 142°
2026-05-07 08:11 12.10515 113.12464 14617 ft 377 kts 142°
2026-05-07 08:11 12.08363 113.13998 14616 ft 378 kts 142°
2026-05-07 08:11 12.06176 113.15558 14616 ft 378 kts 142°
2026-05-07 08:12 12.04030 113.17088 14615 ft 378 kts 143°
2026-05-07 08:12 12.01873 113.18625 14614 ft 378 kts 143°
2026-05-07 08:12 11.99711 113.20164 14610 ft 378 kts 142°
2026-05-07 08:12 11.97562 113.21693 14606 ft 377 kts 143°
2026-05-07 08:13 11.95390 113.23240 14602 ft 377 kts 142°
2026-05-07 08:13 11.93245 113.24764 14600 ft 377 kts 142°
2026-05-07 08:13 11.91094 113.26296 14599 ft 377 kts 142°
2026-05-07 08:13 11.88915 113.27846 14597 ft 378 kts 142°
2026-05-07 08:14 11.86771 113.29372 14596 ft 378 kts 142°
2026-05-07 08:14 11.84619 113.30903 14596 ft 378 kts 142°
2026-05-07 08:14 11.82443 113.32451 14596 ft 378 kts 142°
2026-05-07 08:14 11.80306 113.33970 14595 ft 378 kts 142°
2026-05-07 08:15 11.78127 113.35518 14595 ft 378 kts 142°
2026-05-07 08:15 11.75974 113.37048 14596 ft 378 kts 142°
2026-05-07 08:15 11.73821 113.38578 14595 ft 378 kts 143°
2026-05-07 08:15 11.71663 113.40112 14596 ft 378 kts 142°
2026-05-07 08:16 11.69498 113.41648 14594 ft 377 kts 142°
2026-05-07 08:16 11.67350 113.43173 14595 ft 377 kts 142°
2026-05-07 08:16 11.65175 113.44717 14595 ft 377 kts 142°
2026-05-07 08:16 11.63028 113.46241 14596 ft 377 kts 142°
2026-05-07 08:17 11.60870 113.47772 14424 ft 377 kts 142°
2026-05-07 08:17 11.58701 113.49311 14190 ft 375 kts 142°
2026-05-07 08:17 11.56563 113.50829 13959 ft 374 kts 142°
2026-05-07 08:17 11.54434 113.52339 13729 ft 373 kts 142°
2026-05-07 08:18 11.52314 113.53844 13497 ft 372 kts 142°
2026-05-07 08:18 11.50165 113.55366 13256 ft 370 kts 142°
2026-05-07 08:18 11.48068 113.56853 13006 ft 369 kts 142°
2026-05-07 08:18 11.45968 113.58343 12726 ft 367 kts 143°
2026-05-07 08:19 11.43879 113.59824 12347 ft 365 kts 143°
2026-05-07 08:19 11.41801 113.61297 11905 ft 363 kts 143°
2026-05-07 08:19 11.39712 113.62775 11423 ft 361 kts 143°
2026-05-07 08:19 11.37675 113.64218 10952 ft 359 kts 143°
2026-05-07 08:20 11.35651 113.65651 10632 ft 350 kts 143°
2026-05-07 08:20 11.33673 113.67050 10439 ft 339 kts 143°
2026-05-07 08:20 11.31764 113.68400 10250 ft 328 kts 143°
2026-05-07 08:20 11.29917 113.69705 10066 ft 317 kts 143°
2026-05-07 08:21 11.28126 113.70974 9886 ft 307 kts 143°
2026-05-07 08:21 11.26389 113.72202 9709 ft 297 kts 143°
2026-05-07 08:21 11.24710 113.73390 9500 ft 289 kts 143°
2026-05-07 08:21 11.23058 113.74562 9145 ft 288 kts 143°
2026-05-07 08:22 11.21417 113.75724 8767 ft 286 kts 143°
2026-05-07 08:22 11.19789 113.76874 8401 ft 285 kts 143°
2026-05-07 08:22 11.18163 113.78024 8040 ft 283 kts 143°
2026-05-07 08:22 11.16554 113.79162 7678 ft 282 kts 143°
2026-05-07 08:23 11.14943 113.80300 7316 ft 280 kts 143°
2026-05-07 08:23 11.13337 113.81435 6961 ft 278 kts 143°
2026-05-07 08:23 11.11772 113.82542 6607 ft 276 kts 143°
2026-05-07 08:23 11.10192 113.83658 6250 ft 275 kts 143°
2026-05-07 08:24 11.09114 113.84418 6013 ft 273 kts 142°
2026-05-07 08:24 11.07970 113.85227 5756 ft 272 kts 143°
2026-05-07 08:24 11.06425 113.86320 5395 ft 271 kts 142°
2026-05-07 08:24 11.04884 113.87410 5025 ft 270 kts 142°
2026-05-07 08:25 11.03332 113.88506 4661 ft 269 kts 142°
2026-05-07 08:25 11.01808 113.89580 4305 ft 267 kts 142°
2026-05-07 08:25 11.00277 113.90662 3960 ft 266 kts 142°
2026-05-07 08:25 10.98769 113.91727 3608 ft 265 kts 142°
2026-05-07 08:26 10.95789 113.93829 3085 ft 247 kts 142°
2026-05-07 08:26 10.94434 113.94782 2705 ft 228 kts 142°
2026-05-07 08:26 10.93154 113.95681 2236 ft 219 kts 141°
2026-05-07 08:27 10.91935 113.96541 2074 ft 203 kts 141°
2026-05-07 08:27 10.90835 113.97315 1857 ft 187 kts 140°
2026-05-07 08:27 10.89787 113.98054 1464 ft 180 kts 140°
2026-05-07 08:27 10.88803 113.98749 1249 ft 164 kts 140°
2026-05-07 08:28 10.88084 113.99255 1045 ft 153 kts 140°
2026-05-07 08:28 10.87243 113.99847 965 ft 144 kts 139°
2026-05-07 08:28 10.86411 114.00440 966 ft 145 kts 139°
2026-05-07 08:28 10.85573 114.01038 964 ft 145 kts 137°
2026-05-07 08:29 10.85020 114.01823 937 ft 136 kts 95°
2026-05-07 08:29 10.85219 114.02752 973 ft 138 kts 55°
2026-05-07 08:29 10.85960 114.03348 982 ft 140 kts 31°
2026-05-07 08:29 10.86836 114.03841 951 ft 140 kts 31°
2026-05-07 08:30 10.87691 114.04322 775 ft 139 kts 30°
2026-05-07 08:30 10.88530 114.04765 604 ft 139 kts 30°
2026-05-07 08:30 10.88958 114.05006 530 ft 138 kts 32°
2026-05-07 08:30 10.89778 114.05518 368 ft 138 kts 33°
2026-05-07 08:31 10.90611 114.06004 170 ft 136 kts 32°
2026-05-07 08:31 10.91426 114.06491 40 ft 133 kts 31°
2026-05-07 08:31 10.92143 114.06917 31 ft 97 kts 31°
2026-05-07 08:31 10.92626 114.07198 31 ft 65 kts 29°
2026-05-07 08:32 10.92951 114.07388 31 ft 42 kts 29°
2026-05-07 08:32 10.93176 114.07519 31 ft 35 kts 30°
2026-05-07 08:32 10.93376 114.07636 31 ft 31 kts 30°
2026-05-07 08:32 10.93529 114.07751 31 ft 23 kts 72°
2026-05-07 08:33 10.93586 114.07870 31 ft 15 kts 30°
2026-05-07 08:33 10.93611 114.07903 31 ft 0 kts 82°
2026-05-07 08:34 10.93617 114.07916 31 ft 4 kts 53°
2026-05-07 08:34 10.93623 114.07921 31 ft 0 kts 30°